Regional Weather Roundup
Issued by NWS

Home | Current Version | Previous Version | Graphics & Text | Print | Product List | Glossary On
Versions: 1 2 3 4 5 6 7 8 9 10 11 12 13 14 15 16 17 18 19 20 21 22 23 24 25 26 27 28 29 30 31 32 33 34 35 36 37 38 39 40 41 42 43 44 45 46 47 48 49 50
000
ASUS45 KBOU 182210
RWRCO

WEATHER ROUNDUP FOR COLORADO
NATIONAL WEATHER SERVICE DENVER/BOULDER CO
300 PM MST THU JAN 18 2018

NOTE: "FAIR" INDICATES FEW OR NO CLOUDS BELOW 12000 FEET WITH NO
SIGNIFICANT WEATHER AND/OR OBSTRUCTIONS TO VISIBILITY.

COZ001>005-013-030-031-182300-
...NORTHWEST COLORADO...

CITY           SKY/WX    TMP DP  RH WIND       PRES   REMARKS
CRAIG          FAIR      41  19  41 E8        30.17F
HAYDEN         FAIR     N/A N/A N/A SE12      30.20F
MEEKER         FAIR      49  19  30 CALM      30.16F
RABBIT EARS PA FAIR      32  19  59 SW5       30.25S WCI  27
STEAMBOAT SPGS FAIR      32  18  55 CALM      30.20F
WALDEN         FAIR      39  14  35 SW9       30.20S
$$

COZ006>008-011-182300-
...WEST CENTRAL VALLEYS...

CITY           SKY/WX    TMP DP  RH WIND       PRES   REMARKS
GRAND JUNCTION FAIR      47  15  27 VRB5      30.20F
MONTROSE       FAIR      47  14  26 CALM      30.21F
EAGLE          FAIR      39  14  36 CALM      30.25F
RIFLE          FAIR      44  17  33 CALM      30.21F
DELTA          FAIR      50  15  24 CALM      30.20F
NUCLA          FAIR      50  16  25 CALM      30.23F
$$

COZ017>023-064>068-182300-
...SOUTHWEST COLORADO...

CITY           SKY/WX    TMP DP  RH WIND       PRES   REMARKS
DURANGO        FAIR      46  19  34 SW8       30.20F
CORTEZ         FAIR      46  20  35 VRB3      30.22F
PAGOSA SPRINGS FAIR      48  11  22 S5        30.20F
TELLURIDE      FAIR      45  12  26 W10       30.26F
WOLF CREEK PAS FAIR      36   9  32 W3        30.36F
$$

COZ009-010-012-014-032>034-037-058>063-182300-
...CENTRAL COLORADO...

CITY           SKY/WX    TMP DP  RH WIND       PRES   REMARKS
ASPEN          FAIR      43  14  31 N7        30.20F
BUENA VISTA    FAIR      53  -1  11 CALM      30.13F
COPPER MTN     NOT AVBL
BERTHOUD PASS  FAIR      25  12  58 NW21      30.30F WCI  10
COTTONWOOD PAS   N/A     54   1  12 W5        30.21S
GUNNISON       FAIR      33   9  36 CALM      30.26F
KREMMLING      FAIR      36  16  44 CALM      30.26F
LEADVILLE      FAIR      40  10  29 W14       30.22S
MONARCH PASS   FAIR      32   9  37 SW17      30.39S WCI  21
SALIDA         FAIR      55   4  12 SW12      30.19F
SUNLIGHT       FAIR      34   9  35 SW7G16    30.31F WCI  28
WILKERSON PASS FAIR      43   3  19 W7        30.26S
$$

COZ069>075-182300-
...SAN LUIS VALLEY/SANGRE DE CRISTO MOUNTAINS...

CITY           SKY/WX    TMP DP  RH WIND       PRES   REMARKS
ALAMOSA        FAIR      44   4  19 S3        30.18F
DEL NORTE      FAIR      44   5  20 E5        30.19F
LA VETA PASS   FAIR      36   7  30 SW20        N/A
SAGUACHE       FAIR      43   7  22 SE3       30.19F
$$

COZ035-036-038>040-182300-
...NORTHERN COLORADO FRONT RANGE...

CITY           SKY/WX    TMP DP  RH WIND       PRES   REMARKS
DENVER INTL AP PTSUNNY   63   5  10 CALM      29.97F
DMNS CITY PARK NOT AVBL
AURORA         PTSUNNY   64   4   9 SE3       29.98S
FRONT RANGE AP PTSUNNY   64   9  11 VRB5      29.98F
ERIE MUNI ARPT FAIR      64   5   9 E3        30.01S
BOULDER MUN AP FAIR      59  21  23 CALM      29.96S
CENTENNIAL     PTSUNNY   64   5   9 CALM      29.98F
BROOMFIELD     MOSUNNY   64   9  11 SE6       29.98F
FORT COLLINS   FAIR      58  20  22 N3        29.98S
LONGMONT       FAIR      61  16  17 CALM      29.98S
$$

COZ041-046-047-076>085-087-088-182300-
...PIKES PEAK/PALMER DIVIDE AND SOUTHERN FOOTHILLS...

CITY           SKY/WX    TMP DP  RH WIND       PRES   REMARKS
COLO. SPRINGS  PTSUNNY   57   7  13 S8        30.04F
A. F. ACADEMY  FAIR      55   7  14 S9        30.03F
SCHRIEVER AFB  FAIR      55   5  13 S6        30.04F
CHEYENNE MTN   FAIR      53   5  14 SE8       30.01S
ELLICOTT         N/A    N/A N/A N/A SW7       30.02F
FALCON         FAIR      53   1  12 SW9       30.06F
FORT CARSON    FAIR      57   6  13 S7        30.01F
LIMON          FAIR      60   4  10 SW7       29.99F
MONUMENT HILL  FAIR      55   5  13 S12       30.06S
CANON CITY     FAIR      64  10  12 SE9       29.99S
WALSENBURG     FAIR      64   7  10 CALM      30.03F
TRINIDAD       FAIR      61   0   8 CALM      30.04F
$$

COZ042>045-048>051-090-091-182300-
...NORTHEAST COLORADO...

CITY           SKY/WX    TMP DP  RH WIND       PRES   REMARKS
GREELEY ARPT   FAIR      53  20  27 W3        29.97F
AKRON          FAIR      57  24  28 SW5       29.95F
BURLINGTON     FAIR      59  12  15 SW7       29.98F
WRAY           FAIR      64  14  14 CALM      29.94S
YUMA           FAIR      61  19  20 W5        29.94S
STERLING       FAIR      54  23  30 S7        29.93S
HOLYOKE        FAIR      61  21  21 W6        29.93F
FORT MORGAN    FAIR      56  15  20 W5        29.96S
$$

COZ086-089-092>099-182300-
...SOUTHEAST COLORADO...

CITY           SKY/WX    TMP DP  RH WIND       PRES   REMARKS
PUEBLO         FAIR      61  10  13 SE5       29.98F
LA JUNTA       FAIR      61  11  14 SW6       29.99F
LAMAR          FAIR      61  12  14 W9        29.97F
SPRINGFIELD      N/A     63   1   8 SW7       30.00F
$$



USA.gov is the U.S. government's official web portal to all federal, state and local government web resources and services.